This demonstration page uses our WeatherBlox Daily Observations layout. Learn more.

Left ArrowRight Arrow

44.8408, -93.29828

Hourly Observations for March 16, 2022

Temp ( °F °C ) Dew Point ( °F °C ) Humidity (%) Winds ( mph kmh ) Pressure ( in mb ) Visibility ( mi km ) Precip ( " mm )
12:53 am 00:53 Mostly Clear 39 3.9 31 -0.6 73 73 SSE 9 15 29.94 1014 10 16 0.00 0.00
1:53 am 01:53 Mostly Clear 39 3.9 32 0 76 76 SSE 9 15 29.91 1013 10 16 0.00 0.00
2:53 am 02:53 Partly Cloudy 40 4.4 32 0 73 73 SSE 8 13 29.90 1012 10 16 0.00 0.00
3:53 am 03:53 Partly Cloudy 39 3.9 32 0 76 76 SSE 8 13 29.86 1011 10 16 0.00 0.00
4:53 am 04:53 Mostly Clear 39 3.9 32 0 76 76 SSE 8 13 29.83 1010 10 16 0.00 0.00
5:53 am 05:53 Mostly Clear 39 3.9 31 -0.6 73 73 SSE 8 13 29.80 1009 10 16 0.00 0.00
6:53 am 06:53 Partly Cloudy 39 3.9 31 -0.6 73 73 SSE 7 11 29.79 1009 10 16 0.00 0.00
7:53 am 07:53 Partly Cloudy 39 3.9 31 -0.6 73 73 SE 6 9 29.79 1009 9 14 0.00 0.00
8:53 am 08:53 Partly Cloudy 40 4.4 33 0.6 77 77 SSE 7 11 29.77 1008 10 16 0.00 0.00
9:53 am 09:53 Mostly Cloudy 48 8.9 33 0.6 56 56 SSW 9 15 29.75 1008 10 16 0.00 0.00
10:53 am 10:53 Mostly Cloudy 49 9.4 33 0.6 55 55 WSW 10 17 29.76 1008 10 16 0.00 0.00
11:53 am 11:53 Partly Cloudy 50 10 32 0 50 50 W 8 13 29.77 1008 10 16 0.00 0.00
12:53 pm 12:53 Partly Cloudy 53 11.7 34 1.1 48 48 WNW 7 11 29.77 1008 10 16 0.00 0.00
1:53 pm 13:53 Mostly Cloudy 53 11.7 33 0.6 47 47 SW 3 6 29.77 1008 10 16 0.00 0.00
2:53 pm 14:53 Mostly Cloudy 54 12.2 32 0 43 43 S 5 7 29.75 1008 10 16 0.00 0.00
3:53 pm 15:53 Mostly Cloudy 54 12.2 35 1.7 49 49 S 7 11 29.74 1007 10 16 0.00 0.00
4:53 pm 16:53 Mostly Cloudy 55 12.8 36 2.2 49 49 WSW 6 9 29.75 1008 10 16 0.00 0.00
5:53 pm 17:53 Mostly Cloudy 54 12.2 37 2.8 53 53 W 10 17 29.77 1008 10 16 0.00 0.00
6:53 pm 18:53 Mostly Cloudy 52 11.1 37 2.8 57 57 W 6 9 29.78 1009 10 16 0.00 0.00
7:53 pm 19:53 Mostly Cloudy 49 9.4 36 2.2 61 61 W 6 9 29.80 1009 10 16 0.00 0.00
8:53 pm 20:53 Mostly Cloudy 48 8.9 37 2.8 66 66 WSW 7 11 29.83 1010 10 16 0.00 0.00
9:53 pm 21:53 Mostly Cloudy 46 7.8 38 3.3 73 73 WNW 8 13 29.83 1010 10 16 0.00 0.00
10:53 pm 22:53 Mostly Cloudy 45 7.2 36 2.2 71 71 W 5 7 29.84 1010 10 16 0.00 0.00
11:53 pm 23:53 Partly Cloudy 44 6.7 36 2.2 73 73 WSW 3 6 29.85 1011 10 16 0.00 0.00

Powered by AerisWeather